Flag for Albania Weather past 2 weeks in Durrës, Albania

Now
72 °F

Sunny.


Feels Like: 77 °F
Forecast: 61 / 72 °F
Wind: 5 mph from Northwest

Location: Tirana Airport

Current Time: May 29, 2015 at 1:19:23 PM

Latest Report: May 29, 2015 at 12:50 PM


Visibility: 10 mi

Pressure: 29.95 "Hg

Humidity: 33%

Dew point: 41 °F

Location of DurrësLocation

Historic Weather in Durrës — Graph

°F

Durrës temperature yesterday

Maximum temperature yesterday: 73 °F (at 1:20 PM)
Minimum temperature yesterday: 55 °F (at 3:20 AM)
Average temperature yesterday: 64 °F

Past Weeks' High & Low Weather Summary

 TemperatureHumidityPressure
High88 °F (May 16, 11:50 AM)94% (May 17, 4:20 AM)30.09 "Hg (May 17, 4:20 AM)
Low46 °F (May 29, 4:20 AM)25% (May 16, 11:50 AM)29.74 "Hg (May 27, 3:50 AM)
Average67 °F65%29.89 "Hg
* Reported May 14 12:20 PM — May 29 12:20 PM, Durrës, Weather by CustomWeather, © 2015

Note: Actual official high and low records may vary slightly from our data, if they occured in-between our weather recording intervals... More about our weather records

Advertising

Durrës weather history for previous 24 hours

 ConditionsComfort  
Time TempWeatherWind HumidityBarometerVisibility
12:20 PM
Fri, May 29
72 °FPassing clouds.6 mph33%29.95 "HgN/A
11:50 AM70 °FPassing clouds.7 mph33%29.95 "HgN/A
11:20 AM70 °FSunny.5 mph29%29.95 "Hg10 mi
10:50 AM70 °FSunny.2 mph29%29.95 "Hg10 mi
10:20 AM68 °FPassing clouds.3 mph38%29.95 "HgN/A
9:50 AM66 °FSunny.3 mph40%29.95 "Hg10 mi
9:20 AM66 °FPassing clouds.3 mph43%29.95 "HgN/A
8:50 AM64 °FSunny.2 mph49%29.95 "Hg10 mi
8:20 AM61 °FSunny.2 mph55%29.95 "Hg10 mi
7:50 AM59 °FSunny.No wind59%29.95 "Hg10 mi
7:20 AM57 °FSunny.No wind67%29.95 "Hg10 mi
6:50 AM54 °FSunny.2 mph72%29.95 "Hg10 mi
6:20 AM50 °FSunny.No wind88%29.95 "Hg10 mi
5:20 AM48 °FClear.2 mph82%29.92 "Hg10 mi
4:50 AM48 °FClear.2 mph87%29.92 "Hg10 mi
4:20 AM46 °FClear.No wind93%29.92 "Hg10 mi
3:50 AM50 °FClear.5 mph82%29.92 "Hg10 mi
3:20 AM48 °FClear.6 mph87%29.92 "Hg10 mi
2:50 AM50 °FClear.5 mph76%29.92 "Hg10 mi
2:20 AM50 °FClear.2 mph76%29.92 "Hg10 mi
1:50 AM50 °FClear.2 mph76%29.92 "Hg10 mi
1:20 AM52 °FClear.2 mph72%29.92 "Hg10 mi
12:50 AM52 °FClear.2 mph72%29.92 "Hg10 mi
11:50 PM
Thu, May 28
55 °FClear.2 mph55%29.92 "Hg10 mi
11:20 PM55 °FClear.2 mph59%29.92 "Hg10 mi
10:50 PM55 °FPassing clouds.3 mph59%29.92 "HgN/A
10:20 PM57 °FClear.6 mph51%29.92 "Hg10 mi
9:50 PM61 °FPassing clouds.8 mph45%29.92 "HgN/A
9:20 PM61 °FClear.10 mph45%29.92 "Hg10 mi
8:50 PM61 °FSunny.8 mph45%29.89 "Hg10 mi
8:20 PM61 °FSunny.8 mph52%29.89 "Hg10 mi
7:50 PM64 °FSunny.10 mph46%29.89 "Hg10 mi
7:20 PM66 °FPassing clouds.14 mph43%29.89 "HgN/A
6:50 PM68 °FPassing clouds.14 mph43%29.89 "HgN/A
6:20 PM70 °FScattered clouds.16 mph40%29.86 "HgN/A
5:50 PM70 °FScattered clouds.17 mph35%29.86 "HgN/A
5:20 PM72 °FScattered clouds.15 mph36%29.86 "HgN/A
4:50 PM72 °FScattered clouds.17 mph33%29.89 "HgN/A
4:20 PM72 °FScattered clouds.18 mph36%29.86 "HgN/A
3:50 PM73 °FPassing clouds.16 mph33%29.86 "HgN/A
3:20 PM73 °FPassing clouds.15 mph33%29.86 "HgN/A
2:50 PM73 °FPassing clouds.14 mph33%29.86 "HgN/A
2:20 PM73 °FPassing clouds.17 mph31%29.86 "HgN/A
1:50 PM72 °FScattered clouds.15 mph36%29.86 "HgN/A
1:20 PM73 °FScattered clouds.16 mph36%29.86 "HgN/A
Weather by CustomWeather, © 2015

See weather overviewHow to use our weather pages